FW3031 Weather Reports


time (UTC)temp
C
wind
direction
speed
KPH
gust
KPH
rain 1hr
cm
rain 24hr
cm
rain mn
cm
humidity
%
barometer
mb
20260507015009 33 190 3.2 9.7 0.00 0.00 0.00 37 1007.3
20260507014607 33 190 1.6 17.7 0.00 0.00 0.00 36 1007.3
20260507014512 33 190 1.6 17.7 0.00 0.00 0.00 37 1007.3
20260507014008 33 190 6.4 17.7 0.00 0.00 0.00 36 1007.2
20260507013508 33 190 4.8 14.5 0.00 0.00 0.00 36 1007.1
20260507013059 33 190 3.2 16.1 0.00 0.00 0.00 35 1007.1
20260507013008 33 190 1.6 16.1 0.00 0.00 0.00 35 1007.0
20260507012509 34 190 4.8 17.7 0.00 0.00 0.00 35 1006.9
20260507012009 34 190 8.0 17.7 0.00 0.00 0.00 34 1006.8
20260507011604 35 190 6.4 19.3 0.00 0.00 0.00 33 1006.7
20260507011508 35 190 4.8 16.1 0.00 0.00 0.00 33 1006.7
20260507011007 35 190 6.4 19.3 0.00 0.00 0.00 32 1006.5
20260507010506 35 190 6.4 19.3 0.00 0.00 0.00 32 1006.4
20260507010058 36 190 1.6 16.1 0.00 0.00 0.00 30 1006.3
20260507010010 36 190 0.0 16.1 0.00 0.00 0.00 30 1006.3
20260507005507 36 190 4.8 16.1 0.00 0.00 0.00 29 1006.2
20260507005006 37 190 1.6 12.9 0.00 0.00 0.00 24 1006.1
20260507004558 37 190 1.6 12.9 0.00 0.00 0.00 20 1005.9
20260507004504 37 190 1.6 12.9 0.00 0.00 0.00 21 1005.9
20260507004005 37 190 3.2 12.9 0.00 0.00 0.00 20 1005.6
20260507003505 37 190 3.2 12.9 0.00 0.00 0.00 20 1005.5
20260507003100 37 190 4.8 17.7 0.00 0.00 0.00 20 1005.3
20260507003008 37 190 4.8 17.7 0.00 0.00 0.00 20 1005.3
20260507002503 37 190 6.4 17.7 0.00 0.00 0.00 20 1005.1
20260507002007 37 190 3.2 16.1 0.00 0.00 0.00 20 1005.1
20260507001615 38 190 6.4 16.1 0.00 0.00 0.00 20 1005.0
20260507001504 37 190 4.8 16.1 0.00 0.00 0.00 20 1005.0
20260507001004 38 190 4.8 16.1 0.00 0.00 0.00 20 1004.9
20260507000503 38 190 4.8 16.1 0.00 0.00 0.00 21 1004.8
20260507000101 38 190 6.4 14.5 0.00 0.00 0.00 20 1004.9
20260507000003 38 190 4.8 14.5 0.00 0.00 0.00 20 1004.8
20260506235504 38 190 4.8 12.9 0.00 0.00 0.00 20 1004.8
20260506235002 38 190 3.2 9.7 0.00 0.00 0.00 20 1004.8
20260506234603 38 190 1.6 11.3 0.00 0.00 0.00 20 1004.8
20260506234501 38 190 1.6 11.3 0.00 0.00 0.00 20 1004.8
20260506234002 38 190 3.2 19.3 0.00 0.00 0.00 20 1004.7
20260506233501 38 190 4.8 19.3 0.00 0.00 0.00 20 1004.8
20260506233059 38 190 6.4 19.3 0.00 0.00 0.00 20 1004.8
20260506233002 38 190 6.4 19.3 0.00 0.00 0.00 21 1004.8
20260506232503 38 190 4.8 12.9 0.00 0.00 0.00 20 1004.7
20260506232001 38 190 4.8 12.9 0.00 0.00 0.00 20 1004.7
20260506231602 38 190 3.2 12.9 0.00 0.00 0.00 20 1004.7
20260506231558 38 190 4.8 16.1 0.00 0.00 0.00 20 1004.7
20260506231101 38 190 3.2 16.1 0.00 0.00 0.00 21 1004.8
20260506230600 38 190 4.8 14.5 0.00 0.00 0.00 21 1004.7
20260506230100 38 190 3.2 14.5 0.00 0.00 0.00 21 1004.7
20260506230058 38 190 4.8 14.5 0.00 0.00 0.00 20 1004.8
20260506225600 39 190 3.2 11.3 0.00 0.00 0.00 21 1004.7
20260506225100 38 190 1.6 11.3 0.00 0.00 0.00 21 1004.7
20260506224559 38 190 0.0 12.9 0.00 0.00 0.00 21 1004.7
20260506224059 39 190 4.8 11.3 0.00 0.00 0.00 21 1004.7
20260506223557 38 190 1.6 12.9 0.00 0.00 0.00 22 1004.8
20260506223101 38 190 4.8 16.1 0.00 0.00 0.00 22 1004.8
20260506223057 38 190 3.2 19.3 0.00 0.00 0.00 21 1004.9
20260506222556 38 190 3.2 19.3 0.00 0.00 0.00 21 1004.9
20260506222055 38 190 8.0 19.3 0.00 0.00 0.00 21 1004.9
20260506221601 38 190 4.8 16.1 0.00 0.00 0.00 21 1005.0
20260506221555 38 190 3.2 16.1 0.00 0.00 0.00 22 1005.0
20260506221054 38 190 0.0 17.7 0.00 0.00 0.00 22 1005.1
20260506220555 38 190 4.8 17.7 0.00 0.00 0.00 22 1005.2
20260506220108 38 190 4.8 11.3 0.00 0.00 0.00 21 1005.2
20260506220053 38 190 1.6 11.3 0.00 0.00 0.00 22 1005.2
20260506215552 38 190 0.0 19.3 0.00 0.00 0.00 22 1005.2
20260506215053 38 190 4.8 24.1 0.00 0.00 0.00 23 1005.4
20260506214601 38 190 6.4 14.5 0.00 0.00 0.00 22 1005.3
20260506214551 38 190 6.4 24.1 0.00 0.00 0.00 22 1005.3
20260506214049 38 190 1.6 12.9 0.00 0.00 0.00 23 1005.5
20260506213548 38 190 3.2 20.9 0.00 0.00 0.00 24 1005.7
20260506213103 38 190 9.7 20.9 0.00 0.00 0.00 23 1005.6
20260506213049 38 190 6.4 20.9 0.00 0.00 0.00 24 1005.7
20260506212548 38 190 3.2 12.9 0.00 0.00 0.00 24 1005.6
20260506212048 38 190 0.0 8.0 0.00 0.00 0.00 24 1005.7
20260506211600 37 0 1.6 17.7 0.00 0.00 0.00 24 1005.8
20260506211552 37 190 1.6 17.7 0.00 0.00 0.00 25 1005.9
20260506211045 37 190 8.0 17.7 0.00 0.00 0.00 24 1006.1
20260506210545 37 190 3.2 20.9 0.00 0.00 0.00 25 1006.1
20260506210120 38 190 6.4 16.1 0.00 0.00 0.00 24 1006.1
20260506210044 38 190 9.7 20.9 0.00 0.00 0.00 25 1006.2
20260506205543 38 190 3.2 9.7 0.00 0.00 0.00 24 1006.3
20260506205042 37 190 0.0 11.3 0.00 0.00 0.00 24 1006.3
20260506204559 37 190 6.4 19.3 0.00 0.00 0.00 25 1006.4
20260506204541 37 190 6.4 19.3 0.00 0.00 0.00 25 1006.4
20260506204040 37 190 6.4 19.3 0.00 0.00 0.00 25 1006.5
20260506203540 37 190 3.2 16.1 0.00 0.00 0.00 24 1006.5
20260506203143 37 190 3.2 12.9 0.00 0.00 0.00 24 1006.7
20260506203039 37 190 1.6 12.9 0.00 0.00 0.00 24 1006.6
20260506202538 37 190 0.0 6.4 0.00 0.00 0.00 25 1006.7
20260506202037 37 190 1.6 6.4 0.00 0.00 0.00 25 1006.7
20260506201600 37 190 1.6 11.3 0.00 0.00 0.00 25 1006.9
20260506201536 37 190 1.6 9.7 0.00 0.00 0.00 26 1006.9
20260506201034 37 190 1.6 11.3 0.00 0.00 0.00 26 1007.1
20260506200533 37 190 1.6 19.3 0.00 0.00 0.00 26 1007.2
20260506200032 36 190 4.8 22.5 0.00 0.00 0.00 27 1007.3
20260506195531 37 190 4.8 16.1 0.00 0.00 0.00 26 1007.4
20260506195032 36 190 1.6 11.3 0.00 0.00 0.00 27 1007.5
20260506194601 36 0 1.6 12.9 0.00 0.00 0.00 26 1007.6
20260506194534 36 190 1.6 12.9 0.00 0.00 0.00 27 1007.7
20260506194027 36 190 3.2 12.9 0.00 0.00 0.00 27 1007.8
20260506193525 36 190 4.8 17.7 0.00 0.00 0.00 27 1008.0
20260506193100 36 190 8.0 17.7 0.00 0.00 0.00 28 1008.1
20260506193028 36 190 6.4 17.7 0.00 0.00 0.00 28 1008.2
20260506192522 36 190 1.6 8.0 0.00 0.00 0.00 27 1008.3
20260506192021 36 190 0.0 11.3 0.00 0.00 0.00 30 1008.4
20260506191605 35 190 3.2 14.5 0.00 0.00 0.00 29 1008.5
20260506191520 35 190 0.0 14.5 0.00 0.00 0.00 29 1008.6
20260506191018 35 190 8.0 14.5 0.00 0.00 0.00 30 1008.7
20260506190517 35 190 4.8 12.9 0.00 0.00 0.00 30 1008.8
20260506190058 35 0 4.8 14.5 0.00 0.00 0.00 30 1008.9
20260506190017 35 190 3.2 14.5 0.00 0.00 0.00 30 1009.0
20260506185515 35 190 6.4 11.3 0.00 0.00 0.00 30 1009.1
20260506185016 35 190 3.2 12.9 0.00 0.00 0.00 30 1009.3
20260506184603 35 190 4.8 14.5 0.00 0.00 0.00 31 1009.4
20260506184521 35 190 4.8 14.5 0.00 0.00 0.00 31 1009.4
20260506184013 35 190 6.4 14.5 0.00 0.00 0.00 31 1009.6
20260506183511 35 190 6.4 16.1 0.00 0.00 0.00 32 1009.7
20260506183112 34 190 4.8 16.1 0.00 0.00 0.00 31 1009.6
20260506183009 34 190 4.8 16.1 0.00 0.00 0.00 32 1009.8
20260506182508 35 190 1.6 6.4 0.00 0.00 0.00 32 1009.8
20260506182009 34 190 0.0 8.0 0.00 0.00 0.00 32 1010.0
20260506181601 35 190 0.0 9.7 0.00 0.00 0.00 32 1010.1
20260506181507 34 190 0.0 9.7 0.00 0.00 0.00 32 1010.1
20260506181007 34 190 3.2 14.5 0.00 0.00 0.00 32 1010.2
20260506180507 34 190 6.4 14.5 0.00 0.00 0.00 33 1010.3
20260506180058 34 190 1.6 9.7 0.00 0.00 0.00 32 1010.2
20260506180007 34 190 1.6 8.0 0.00 0.00 0.00 33 1010.3
20260506175504 34 190 0.0 9.7 0.00 0.00 0.00 34 1010.4
20260506175004 34 190 1.6 11.3 0.00 0.00 0.00 33 1010.5
20260506174609 34 190 3.2 11.3 0.00 0.00 0.00 33 1010.4
20260506174002 33 190 1.6 6.4 0.00 0.00 0.00 34 1010.7
20260506173601 33 190 0.0 8.0 0.00 0.00 0.00 35 1010.8
20260506173128 33 190 0.0 9.7 0.00 0.00 0.00 35 1010.9
20260506173059 33 0 1.6 9.7 0.00 0.00 0.00 35 1010.7
20260506172558 33 190 0.0 11.3 0.00 0.00 0.00 35 1010.9
20260506172057 32 190 1.6 11.3 0.00 0.00 0.00 36 1011.0
20260506171611 32 190 3.2 11.3 0.00 0.00 0.00 36 1010.9
20260506171559 32 190 1.6 11.3 0.00 0.00 0.00 36 1011.2
20260506171056 32 190 4.8 11.3 0.00 0.00 0.00 37 1011.2
20260506170556 32 190 4.8 9.7 0.00 0.00 0.00 37 1011.4
20260506170103 32 190 1.6 11.3 0.00 0.00 0.00 37 1011.1
20260506170055 32 190 1.6 11.3 0.00 0.00 0.00 37 1011.4
20260506165554 32 190 1.6 11.3 0.00 0.00 0.00 39 1011.5
20260506165055 32 190 3.2 8.0 0.00 0.00 0.00 38 1011.6
20260506164600 32 190 3.2 8.0 0.00 0.00 0.00 38 1011.3
20260506164553 32 190 3.2 8.0 0.00 0.00 0.00 39 1011.7
20260506164051 32 190 0.0 8.0 0.00 0.00 0.00 39 1011.8
20260506163550 31 190 1.6 8.0 0.00 0.00 0.00 40 1011.8
20260506163133 31 190 3.2 9.7 0.00 0.00 0.00 40 1011.6
20260506163054 31 190 3.2 8.0 0.00 0.00 0.00 40 1011.9
20260506162547 31 190 1.6 9.7 0.00 0.00 0.00 40 1012.0
20260506162047 31 190 4.8 9.7 0.00 0.00 0.00 41 1012.0
20260506161559 31 190 0.0 9.7 0.00 0.00 0.00 41 1011.7
20260506161548 31 190 1.6 9.7 0.00 0.00 0.00 41 1012.0
20260506161048 30 190 3.2 9.7 0.00 0.00 0.00 42 1012.1
20260506160544 30 190 1.6 9.7 0.00 0.00 0.00 43 1012.1
20260506160106 30 190 4.8 9.7 0.00 0.00 0.00 43 1011.9
20260506160043 30 190 4.8 9.7 0.00 0.00 0.00 43 1012.1
20260506155543 30 190 0.0 3.2 0.00 0.00 0.00 45 1012.1
20260506155041 30 190 0.0 6.4 0.00 0.00 0.00 47 1012.1
20260506154557 30 190 3.2 6.4 0.00 0.00 0.00 46 1011.9
20260506154541 29 190 1.6 6.4 0.00 0.00 0.00 47 1012.2
20260506154039 29 190 0.0 8.0 0.00 0.00 0.00 48 1012.2
20260506153539 29 190 0.0 8.0 0.00 0.00 0.00 49 1012.2
20260506153129 29 0 0.0 3.2 0.00 0.00 0.00 49 1011.9
20260506153042 29 190 0.0 3.2 0.00 0.00 0.00 49 1012.3
20260506152536 29 190 0.0 1.6 0.00 0.00 0.00 49 1012.3
20260506152038 29 190 0.0 3.2 0.00 0.00 0.00 50 1012.2
20260506151600 28 0 1.6 6.4 0.00 0.00 0.00 50 1011.9
20260506151534 28 190 0.0 6.4 0.00 0.00 0.00 51 1012.3
20260506151035 28 190 0.0 4.8 0.00 0.00 0.00 51 1012.4
20260506150531 28 190 0.0 4.8 0.00 0.00 0.00 52 1012.4
20260506150030 28 190 0.0 4.8 0.00 0.00 0.00 53 1012.4
20260506145531 27 190 0.0 4.8 0.00 0.00 0.00 53 1012.3
20260506145027 27 190 0.0 6.4 0.00 0.00 0.00 54 1012.4
20260506144558 27 190 0.0 4.8 0.00 0.00 0.00 54 1012.0
20260506144541 27 190 0.0 4.8 0.00 0.00 0.00 55 1012.4
20260506144025 27 190 0.0 4.8 0.00 0.00 0.00 55 1012.4
20260506143526 27 190 0.0 0.0 0.00 0.00 0.00 56 1012.5
20260506143059 26 0 0.0 0.0 0.00 0.00 0.00 56 1012.0
20260506143026 26 190 0.0 0.0 0.00 0.00 0.00 57 1012.5
20260506142525 26 190 0.0 0.0 0.00 0.00 0.00 58 1012.5
20260506142026 26 190 0.0 0.0 0.00 0.00 0.00 58 1012.4
20260506141600 25 0 0.0 0.0 0.00 0.00 0.00 59 1011.9
20260506141525 25 190 0.0 0.0 0.00 0.00 0.00 60 1012.4
20260506141026 25 190 0.0 0.0 0.00 0.00 0.00 61 1012.4
20260506140526 25 190 0.0 0.0 0.00 0.00 0.00 61 1012.4
20260506140057 25 0 0.0 0.0 0.00 0.00 0.00 61 1011.9
20260506140040 25 190 0.0 0.0 0.00 0.00 0.00 62 1012.4
20260506135524 24 190 0.0 0.0 0.00 0.00 0.00 62 1012.4
20260506135024 24 190 0.0 0.0 0.00 0.00 0.00 63 1012.5
20260506134556 23 0 0.0 0.0 0.00 0.00 0.00 63 1011.9
20260506134530 23 190 0.0 0.0 0.00 0.00 0.00 64 1012.5
20260506134025 23 190 0.0 0.0 0.00 0.00 0.00 65 1012.4
20260506133523 23 190 0.0 0.0 0.00 0.00 0.00 66 1012.4
20260506133057 22 0 0.0 0.0 0.00 0.00 0.00 66 1011.7
20260506133022 22 190 0.0 0.0 0.00 0.00 0.00 66 1012.3
20260506132521 22 190 0.0 0.0 0.00 0.00 0.00 67 1012.3
20260506132021 22 190 0.0 0.0 0.00 0.00 0.00 67 1012.1
20260506131608 22 0 0.0 0.0 0.00 0.00 0.00 67 1011.4
20260506131527 22 190 0.0 0.0 0.00 0.00 0.00 68 1012.1
20260506131019 22 190 0.0 0.0 0.00 0.00 0.00 68 1012.0
20260506130518 22 190 0.0 0.0 0.00 0.00 0.00 68 1011.9
20260506130059 22 0 0.0 0.0 0.00 0.00 0.00 68 1011.3
20260506130018 22 190 0.0 0.0 0.00 0.00 0.00 68 1011.8
20260506125517 21 190 0.0 0.0 0.00 0.00 0.00 68 1011.7
20260506125017 21 190 0.0 0.0 0.00 0.00 0.00 68 1011.8
20260506124608 21 0 0.0 0.0 0.00 0.00 0.00 68 1011.2
20260506124516 21 190 0.0 0.0 0.00 0.00 0.00 68 1011.7
20260506124015 21 190 0.0 0.0 0.00 0.00 0.00 68 1011.7
20260506123515 21 190 0.0 0.0 0.00 0.00 0.00 68 1011.5
20260506123112 21 0 0.0 0.0 0.00 0.00 0.00 68 1011.1
20260506123019 21 190 0.0 0.0 0.00 0.00 0.00 68 1011.5
20260506122514 21 190 0.0 0.0 0.00 0.00 0.00 68 1011.6
20260506122012 21 190 0.0 3.2 0.00 0.00 0.00 68 1011.5
20260506121613 21 0 0.0 4.8 0.00 0.00 0.00 67 1011.1
20260506121512 21 190 0.0 4.8 0.00 0.00 0.00 68 1011.5
20260506121013 21 190 1.6 4.8 0.00 0.00 0.00 68 1011.6
20260506120511 22 190 0.0 3.2 0.00 0.00 0.00 68 1011.5
20260506120058 22 0 0.0 1.6 0.00 0.00 0.00 67 1011.0
20260506120020 22 190 0.0 1.6 0.00 0.00 0.00 67 1011.5
20260506115514 22 190 0.0 1.6 0.00 0.00 0.00 67 1011.4
20260506115008 22 190 0.0 0.0 0.00 0.00 0.00 67 1011.3
20260506114600 22 0 0.0 0.0 0.00 0.00 0.00 66 1010.7
20260506114517 22 190 0.0 0.0 0.00 0.00 0.00 67 1011.3
20260506114009 22 190 0.0 0.0 0.00 0.00 0.00 66 1011.2
20260506113505 22 190 0.0 0.0 0.00 0.00 0.00 66 1011.0
20260506113100 22 0 0.0 0.0 0.00 0.00 0.00 66 1010.7
20260506113005 22 190 0.0 0.0 0.00 0.00 0.00 67 1011.0
20260506112503 22 190 0.0 0.0 0.00 0.00 0.00 66 1011.0
20260506112002 22 190 0.0 0.0 0.00 0.00 0.00 66 1011.0
20260506111602 22 0 0.0 0.0 0.00 0.00 0.00 65 1010.4
20260506111502 22 190 0.0 0.0 0.00 0.00 0.00 66 1010.9
20260506111002 22 190 0.0 0.0 0.00 0.00 0.00 65 1010.8
20260506110601 22 190 0.0 0.0 0.00 0.00 0.00 65 1010.7
20260506110104 22 0 0.0 3.2 0.00 0.00 0.00 65 1010.3
20260506105600 22 190 0.0 3.2 0.00 0.00 0.00 65 1010.6
20260506105059 22 190 0.0 3.2 0.00 0.00 0.00 65 1010.6
20260506104609 22 0 0.0 3.2 0.00 0.00 0.00 64 1010.1
20260506104605 22 190 0.0 0.0 0.00 0.00 0.00 65 1010.5
20260506104056 22 190 0.0 3.2 0.00 0.00 0.00 64 1010.5
20260506103554 23 190 0.0 3.2 0.00 0.00 0.00 63 1010.4
20260506103106 23 0 0.0 0.0 0.00 0.00 0.00 62 1009.9
20260506103100 23 190 0.0 0.0 0.00 0.00 0.00 62 1010.4
20260506102553 23 190 0.0 0.0 0.00 0.00 0.00 62 1010.3
20260506102056 23 190 0.0 0.0 0.00 0.00 0.00 62 1010.3
20260506101637 23 0 0.0 0.0 0.00 0.00 0.00 63 1009.8
20260506101553 23 190 0.0 0.0 0.00 0.00 0.00 63 1010.2
20260506101052 23 190 0.0 0.0 0.00 0.00 0.00 63 1010.3
20260506100552 23 190 0.0 0.0 0.00 0.00 0.00 63 1010.3
20260506100106 23 190 0.0 0.0 0.00 0.00 0.00 62 1010.3
20260506100059 23 0 0.0 0.0 0.00 0.00 0.00 62 1009.8
20260506095551 23 190 0.0 0.0 0.00 0.00 0.00 62 1010.2
20260506095050 23 190 0.0 3.2 0.00 0.00 0.00 62 1010.1
20260506094603 23 0 1.6 4.8 0.00 0.00 0.00 61 1009.7
20260506094555 23 190 0.0 4.8 0.00 0.00 0.00 61 1010.2
20260506094046 23 190 0.0 3.2 0.00 0.00 0.00 61 1010.1
20260506093547 23 190 0.0 3.2 0.00 0.00 0.00 60 1010.1
20260506093101 23 0 0.0 0.0 0.00 0.00 0.00 59 1009.6
20260506093046 23 190 0.0 0.0 0.00 0.00 0.00 59 1010.2
20260506092544 23 190 0.0 0.0 0.00 0.00 0.00 59 1010.1
20260506092044 24 190 0.0 3.2 0.00 0.00 0.00 59 1010.1
20260506091557 24 0 0.0 4.8 0.00 0.00 0.00 59 1009.5
20260506091543 24 190 0.0 4.8 0.00 0.00 0.00 59 1010.0
20260506091043 24 190 0.0 4.8 0.00 0.00 0.00 59 1010.0
20260506090541 24 190 0.0 4.8 0.00 0.00 0.00 58 1010.0
20260506090111 24 190 3.2 6.4 0.00 0.00 0.00 57 1009.6
20260506090042 24 190 1.6 6.4 0.00 0.00 0.00 58 1009.9
20260506085539 24 190 3.2 6.4 0.00 0.00 0.00 57 1010.0
20260506085041 25 190 0.0 0.0 0.00 0.00 0.00 55 1009.9
20260506084623 25 0 0.0 6.4 0.00 0.00 0.00 55 1009.5
20260506084539 25 190 0.0 3.2 0.00 0.00 0.00 55 1009.9
20260506084035 25 190 0.0 6.4 0.00 0.00 0.00 55 1009.8
20260506083534 25 190 3.2 6.4 0.00 0.00 0.00 54 1009.9
20260506083059 26 190 0.0 3.2 0.00 0.00 0.00 52 1009.5
20260506083033 26 190 0.0 3.2 0.00 0.00 0.00 53 1009.8
20260506082531 26 190 0.0 3.2 0.00 0.00 0.00 57 1009.8
20260506082031 26 190 0.0 4.8 0.00 0.00 0.00 56 1009.9
20260506081611 26 190 0.0 3.2 0.00 0.00 0.00 56 1009.5
20260506081531 26 190 0.0 3.2 0.00 0.00 0.00 56 1009.8
20260506081030 26 190 0.0 0.0 0.00 0.00 0.00 56 1009.8
20260506080530 26 190 0.0 0.0 0.00 0.00 0.00 56 1009.8
20260506073529 27 190 0.0 6.4 0.00 0.00 0.00 55 1009.9
20260506073058 27 0 1.6 6.4 0.00 0.00 0.00 54 1009.6
20260506073025 27 190 1.6 6.4 0.00 0.00 0.00 54 1009.9
20260506072524 27 190 0.0 0.0 0.00 0.00 0.00 54 1010.0
20260506072023 27 190 0.0 0.0 0.00 0.00 0.00 53 1010.0
20260506071559 27 0 0.0 1.6 0.00 0.00 0.00 52 1009.8
20260506071523 27 190 0.0 0.0 0.00 0.00 0.00 52 1010.0
20260506071022 27 190 0.0 1.6 0.00 0.00 0.00 50 1010.0
20260506070522 27 190 0.0 3.2 0.00 0.00 0.00 50 1010.1
20260506062020 28 190 0.0 4.8 0.00 0.00 0.00 43 1010.2
20260506061559 28 0 0.0 8.0 0.00 0.00 0.00 45 1009.8
20260506061519 28 190 0.0 8.0 0.00 0.00 0.00 47 1010.2
20260506061018 28 190 1.6 8.0 0.00 0.00 0.00 47 1010.2
20260506060518 28 190 0.0 3.2 0.00 0.00 0.00 44 1010.2
20260506051015 28 190 0.0 0.0 0.00 0.00 0.00 38 1010.0
20260506050515 28 190 0.0 0.0 0.00 0.00 0.00 37 1009.9
20260506050116 28 0 0.0 0.0 0.00 0.00 0.00 37 1009.4
20260506045014 29 190 0.0 0.0 0.00 0.00 0.00 37 1009.7
20260506044601 29 0 0.0 0.0 0.00 0.00 0.00 35 1009.2
20260506044515 29 190 0.0 0.0 0.00 0.00 0.00 36 1009.6
20260506044114 29 190 0.0 0.0 0.00 0.00 0.00 35 1009.6
20260506043516 29 190 0.0 0.0 0.00 0.00 0.00 35 1009.6
20260506043100 29 0 0.0 0.0 0.00 0.00 0.00 34 1009.1
20260506043014 29 190 0.0 0.0 0.00 0.00 0.00 35 1009.5
20260506042514 30 190 0.0 0.0 0.00 0.00 0.00 34 1009.5
20260506042021 30 190 0.0 0.0 0.00 0.00 0.00 33 1009.5
20260506041605 30 0 0.0 0.0 0.00 0.00 0.00 32 1008.9
20260506041513 30 190 0.0 0.0 0.00 0.00 0.00 34 1009.3
20260506041020 30 190 0.0 0.0 0.00 0.00 0.00 33 1009.2
20260506040513 30 190 0.0 0.0 0.00 0.00 0.00 32 1009.1
20260506040100 30 0 0.0 0.0 0.00 0.00 0.00 31 1008.6
20260506040013 30 190 0.0 0.0 0.00 0.00 0.00 31 1009.0
20260506035513 30 190 0.0 0.0 0.00 0.00 0.00 32 1008.8
20260506035013 30 190 0.0 0.0 0.00 0.00 0.00 32 1008.8
20260506034602 30 0 0.0 0.0 0.00 0.00 0.00 31 1008.4
20260506034511 30 190 0.0 0.0 0.00 0.00 0.00 32 1008.7
20260506034011 30 190 0.0 0.0 0.00 0.00 0.00 31 1008.7
20260506033514 31 190 0.0 0.0 0.00 0.00 0.00 30 1008.6
20260506033058 31 0 0.0 0.0 0.00 0.00 0.00 30 1008.2
20260506033020 31 190 0.0 0.0 0.00 0.00 0.00 31 1008.5
20260506032511 31 190 0.0 0.0 0.00 0.00 0.00 29 1008.4
20260506032011 31 190 0.0 0.0 0.00 0.00 0.00 30 1008.3
20260506031558 31 0 0.0 0.0 0.00 0.00 0.00 29 1008.0
20260506031522 31 190 0.0 0.0 0.00 0.00 0.00 29 1008.1
20260506031012 31 190 0.0 0.0 0.00 0.00 0.00 29 1008.0
20260506030511 31 190 0.0 0.0 0.00 0.00 0.00 29 1007.9
20260506030059 31 0 0.0 1.6 0.00 0.00 0.00 29 1007.6
20260506030010 31 190 0.0 1.6 0.00 0.00 0.00 29 1007.8
20260506025510 31 190 0.0 1.6 0.00 0.00 0.00 29 1007.7
20260506025010 32 190 0.0 0.0 0.00 0.00 0.00 28 1007.7
20260506024610 32 0 0.0 0.0 0.00 0.00 0.00 28 1007.3
20260506024510 32 190 0.0 0.0 0.00 0.00 0.00 28 1007.5
20260506024009 32 190 0.0 0.0 0.00 0.00 0.00 28 1007.4
20260506023510 32 190 0.0 0.0 0.00 0.00 0.00 28 1007.3
20260506023112 32 0 0.0 0.0 0.00 0.00 0.00 27 1007.1
20260506023010 32 190 0.0 0.0 0.00 0.00 0.00 28 1007.3
20260506022513 32 190 0.0 0.0 0.00 0.00 0.00 28 1007.2
20260506022013 32 190 0.0 0.0 0.00 0.00 0.00 27 1007.1
20260506021605 33 0 0.0 3.2 0.00 0.00 0.00 26 1006.8
20260506021509 32 190 0.0 3.2 0.00 0.00 0.00 27 1007.0
20260506021011 33 190 0.0 3.2 0.00 0.00 0.00 27 1006.9
20260506020508 33 190 0.0 3.2 0.00 0.00 0.00 26 1006.9
20260506020100 33 0 0.0 1.6 0.00 0.00 0.00 26 1006.6
20260506020014 33 190 0.0 1.6 0.00 0.00 0.00 26 1006.7
20260506015510 33 190 0.0 1.6 0.00 0.00 0.00 26 1006.7